Weather Roundup
Issued by NWS Chicago, IL

Home | Current Version | Previous Version | Text Only | Print | Product List | Glossary Off
Versions: 1 2 3 4 5 6 7 8 9 10 11 12 13 14 15 16 17 18 19 20 21 22 23 24 25 26 27 28 29 30 31 32 33 34 35 36 37 38 39 40 41 42 43 44 45 46 47 48 49 50

000
NZUS59 KLOT 170506
HRRLOT

CHICAGO AREA WEATHER ROUNDUP
NATIONAL WEATHER SERVICE CHICAGO/ROMEOVILLE IL
1200 AM CDT THU APR 17 2014

NOTE: "FAIR" INDICATES FEW OR NO CLOUDS BELOW 12,000 FEET WITH NO
SIGNIFICANT WEATHER AND/OR OBSTRUCTIONS TO VISIBILITY.

* THESE STATIONS ARE NOT UNDER NWS QUALITY CONTROL. THEY ALSO MAY NOT
  REPORT WEATHER SUCH AS PRECIPITATION OR FOG.

ILZ005-006-012>014-019>023-170600-
NORTHEAST ILLINOIS

CITY           SKY/WX    TMP DP  RH WIND       PRES   REMARKS
OHARE          CLOUDY    44  23  43 S15       30.16S
MIDWAY         MOCLDY    45  24  43 S15       30.18R
AURORA         MOCLDY    42  27  55 SE13      30.14F
LANSING*       MOCLDY    42  24  49 S12G20    30.19S
JOLIET*        PTCLDY    42  25  50 SE8       30.17S
WAUKEGAN       CLOUDY    41  30  65 SE13      30.15F
DUPAGE AIRPORT MOCLDY    43  26  51 S15       30.14F
WHEELING       MOCLDY    45  24  43 S13       30.17S
KANKAKEE*      PTCLDY    40  28  61 SE7       30.19S
MORRIS*        PTCLDY    43  25  49 SE14      30.14F
NORTHERLY IS     N/A     45  25  45 SE16        N/A
$$

WIZ051-052-058>065-066-070>072-170600-
SOUTHEAST WISCONSIN

CITY           SKY/WX    TMP DP  RH WIND       PRES   REMARKS
MILWAUKEE      CLOUDY    41  29  62 SE18      30.17S
KENOSHA*       CLOUDY    41  29  62 SE14      30.15F
RACINE*        CLOUDY    40  29  64 SE15G22   30.18S
BURLINGTON     PTCLDY    38  28  67 SW6       30.14R
WAUKESHA       MOCLDY    37  27  65 SE14      30.14S
$$

INZ001>003-010>013-019-020-170600-
NORTHWEST INDIANA

CITY           SKY/WX    TMP DP  RH WIND       PRES   REMARKS
GARY*          MOCLDY    46  23  41 SE14      30.19R
MICHIGAN CITY* NOT AVBL
RENSSELAER*    NOT AVBL
VALPARAISO     PTCLDY    40  24  53 SE12      30.21R
$$

LMZ740>746-170600-
SOUTHERN LAKE MICHIGAN

STATION/POSITION TIME  SKY/WX   TEMP WIND        PRES    VSBY
                                AIR  DIR/SP/G
                 (UTC)          (F)  (DEG/KT/KT) (MB)    (MI)
HARRISON CRIB    0500            44  160/ 19/ 24   N/A
BURNHAM HARBOR   0500            44  160/ 17/ 21   N/A
CALUMET HARBOR   0500            44  150/ 12/ 20 1022.8R
BURNS HARBOR     NOT AVBL
MICHIGAN CITY    0500            44  130/ 14/ 22   N/A
$$

ABBREVIATIONS USED IN REMARKS
   TC - TEMPERATURE IN CELSIUS
  WCI - WIND CHILL INDEX
   HX - HEAT INDEX
  VSB - VISIBILITY
$$


USA.gov is the U.S. government's official web portal to all federal, state and local government web resources and services.